Location: Quaker Farms
(41.4276°N, 73.1557°W)
Time: 22:11:57
(UTC+00:00)

Vanguard 1 - Pass Details

Date: 16 June 2021
Orbit: 651 x 3832 km, 34.2° (Epoch: 25 July)

Event Time Altitude Azimuth Distance (km) Brightness Sun altitude
Rises 00:42:49 0° 209° (SSW) 7,818 14.6 -3.1°
Reaches altitude 10° 00:48:58 10° 201° (SSW) 6,911 14.2 -4.0°
Maximum altitude 01:08:09 34° 146° (SE) 4,775 13.0 -6.9°
Drops below altitude 10° 01:22:59 10° 90° (E) 5,443 13.4 -9.0°
Sets 01:27:00 0° 81° (E) 6,057 13.7 -9.5°
